Location: Long Liko
(2.5833°N, 113.9000°E)
Time: 23:02:07
(UTC+00:00)

Daily predictions for brighter satellites

Satellite Brightness Start Highest point End
(mag) Time Altitude Azimuth Time Altitude Azimuth Time Altitude Azimuth
ASTRO E2 3.5 12:01:24 10° NW 12:04:39 40° N 12:04:39 40° N
ERS-2 4.3 12:04:11 10° NNW 12:07:15 27° WNW 12:10:21 10° SW
H-2A R/B 4.2 12:12:02 10° SSW 12:15:43 21° WSW 12:19:23 10° NW
ATLAS 5 CENTAUR R/B 3.6 12:11:31 10° N 12:16:26 30° NE 12:16:26 30° NE
Maqsat 3 4.4 12:14:04 10° WSW 12:19:20 77° S 12:21:33 49° E
SL-4 R/B 2.9 12:22:49 10° NW 12:26:27 54° NW 12:26:27 54° NW
CZ-3B R/B 3.6 12:16:56 10° WSW 12:34:41 84° SSE 12:36:47 59° ENE
ARIANE 5 R/B 4.1 12:40:48 10° W 12:46:01 82° S 21:34:08 10° E
SJ 16-02 4.3 12:53:19 10° WSW 12:55:32 14° WNW 12:57:44 10° NW
Ariane 42L Rocket 4.4 12:53:58 10° W 13:00:43 66° N 13:01:14 65° NNE
Cosmos 2219 Rocket 4.4 19:16:58 21° ENE 19:16:58 21° ENE 19:19:13 10° NE
ATLAS 3B R/B 4.2 19:17:10 27° E 19:17:10 27° E 19:21:21 10° NE
Cosmos 2263 Rocket 4.4 19:13:10 10° NNE 19:17:12 20° ENE 19:18:16 19° E
Milstar 3 4.1 19:21:14 34° ESE 19:21:14 34° ESE 19:25:50 10° ESE
Hubble Space Telescope 3.6 19:55:33 14° NNE 19:55:33 14° NNE 19:56:16 10° NNE
ATLAS CENTAUR R/B 4.2 19:58:39 23° N 19:58:39 23° N 20:01:48 10° NNE
ARIANE 5 R/B 4.4 20:03:43 17° SE 20:03:43 17° SE 20:05:47 10° ESE
CZ-2C R/B 4.1 20:00:57 10° N 20:03:14 26° N 20:03:14 26° N
FENGYUN 3A 3.7 20:05:06 10° NNE 20:10:03 74° NE 20:10:03 74° NE
Cosmos 2227 4.4 20:05:27 10° N 20:11:00 67° ENE 20:16:34 10° SSE
ARIANE 3 DEB 4.5 20:19:15 40° S 20:19:15 40° S 20:22:58 10° ESE
USA 215 3.1 20:12:08 10° SE 20:18:42 86° SW 20:25:15 10° NW
Cosmos 1484 Rocket 4.2 20:15:31 10° NNE 20:17:59 35° NE 20:17:59 35° NE
Cosmos 2333 Rocket 3.3 20:23:11 30° NW 20:23:11 30° NW 20:26:35 10° N
Cosmos 2237 Rocket 3.5 20:22:22 16° SSE 20:26:22 38° ESE 20:31:32 10° NE
Uosat 12 SS-18 rocket 4.5 20:30:34 52° SSE 20:31:17 59° ESE 20:35:27 10° NNE
ISS -0.6 20:32:29 10° NNE 20:34:38 16° NE 20:36:48 10° E
Centaur AC-42 3.9 20:31:11 29° WNW 20:34:39 49° N 21:11:34 10° ENE
Centaur AC-42 3.9 20:31:10 29° WNW 20:34:39 49° N 21:11:34 10° ENE
METEOR-M 4.0 20:32:29 10° N 20:37:49 78° WNW 20:39:40 42° SSW
Cosmos 2034 Rocket 4.1 20:33:00 10° NNW 20:38:55 46° W 20:39:19 46° WSW
Cosmos 1758 Rocket 3.8 20:41:49 49° NW 20:41:49 49° NW 20:45:30 10° N
ARIANE 5 DEB (SYLDA 5A) 3.5 20:45:07 21° SE 20:45:07 21° SE 20:46:39 10° ESE
ARIANE 5 DEB (SYLDA) 2.4 20:45:26 52° S 20:45:26 52° S 20:49:41 10° ESE
Cosmos 1634 Rocket 4.2 20:39:12 10° N 20:45:24 73° E 20:51:41 10° S
Aureole 1 Rocket 3.7 20:44:52 10° NNW 20:49:59 85° W 20:56:49 10° S
ADEOS 4.1 20:47:04 10° NNE 20:52:11 59° ESE 20:57:18 10° S
ATLAS 3B CENTAUR R/B 4.4 20:51:37 10° SSW 20:53:42 12° S 20:55:36 10° SSE
Cosmos 2219 Rocket 3.7 20:58:44 18° WNW 20:58:44 18° WNW 21:01:45 10° NNW
SL-24 R/B 3.6 20:55:11 10° SSE 20:58:49 87° E 21:02:33 10° N
NOSS 0 Rocket 3.9 20:56:07 26° SW 20:59:33 59° WNW 21:05:35 10° N
Cosmos 2263 Rocket 3.2 20:56:03 10° NW 21:05:36 10° SSW 21:05:39 10° SSW
Cosmos 1844 Rocket 4.4 20:56:42 10° N 21:01:46 34° ENE 21:06:50 10° SE
ALOS 3.6 21:01:28 10° NNW 21:04:30 21° WNW 21:04:30 21° WNW
ATLAS 3B R/B 3.6 21:04:28 23° W 21:06:14 26° WNW 21:11:32 10° NNW
USA 234 3.7 21:01:33 10° NNE 21:07:40 44° NW 21:11:40 21° WSW
COSMOS 2428 4.1 21:07:32 19° WNW 21:07:45 19° WNW 21:11:38 10° NNW
Cosmos 2058 4.0 21:07:12 10° SSE 21:11:15 47° E 21:15:16 10° NNE
Cosmos 2142 Rocket 4.5 21:06:45 10° N 21:12:53 85° E 21:19:01 10° S
Cosmos 1892 3.1 21:11:53 27° SW 21:13:13 38° W 21:16:43 10° NNW
Cosmos 1408 2.7 21:12:36 21° SSW 21:14:41 49° W 21:18:07 10° N
ARIANE 5 DEB (SYLDA) 4.4 21:14:24 22° WSW 21:17:24 67° S 21:34:08 10° E
Ariane H10 4.5 20:48:48 11° W 21:20:04 84° N 21:24:52 10° E
Cosmos 2084 3.5 21:20:14 10° NNW 21:24:48 82° WSW 21:29:25 10° SSE
H-2A R/B 2.7 21:22:43 10° NNE 21:26:32 88° E 21:30:24 10° S
IRAS Rocket 4.3 21:21:25 10° S 21:26:50 58° WSW 21:32:18 10° NNW
Cosmos 2279 Rocket 3.9 21:21:04 10° N 21:27:18 78° W 21:33:32 10° S
Cosmos 1980 4.2 21:23:57 12° SW 21:28:38 39° WNW 21:33:51 10° N
ASTEX 1 4.0 21:26:46 10° SSW 21:31:13 34° W 21:35:42 10° NNW
Cosmos 1869 4.5 21:30:02 10° NNE 21:33:54 48° E 21:37:50 10° SSE
Cosmos 1812 Rocket 4.2 21:31:35 10° NNW 21:35:27 33° W 21:39:20 10° SSW
CZ-2C R/B 2.3 21:37:21 13° WSW 21:38:53 18° SW 21:41:11 10° S
Cosmos 1825 2.5 21:35:29 10° SSW 21:39:03 42° W 21:42:37 10° NNW
SL-16 R/B 2.7 21:36:42 10° S 21:42:19 64° ESE 21:47:54 10° NNE
Nadezhda 4 Rocket 4.5 21:37:13 10° SSW 21:43:02 39° W 21:48:50 10° NNW
Cosmos 1092 Rocket 4.0 21:41:42 10° S 21:48:00 70° W 21:54:14 10° N
Milstar 3 Cent rocket 3.2 21:37:58 10° SW 21:48:12 62° SSE 21:53:39 10° ENE
Cosmos 1844 3.7 21:45:50 10° NNW 21:51:23 87° WSW 21:56:59 10° SSE
Cosmos 2026 Rocket 4.0 21:46:44 10° S 21:52:49 84° W 21:58:52 10° N
GPS 2-15 Rocket1 4.2 21:49:40 10° NW 21:54:07 44° NNE 21:58:32 10° E
ARIANE 5 DEB (SYLDA) 3.5 21:51:37 10° WSW 21:54:26 19° S 21:56:24 10° SE
CZ-3 R/B 4.4 21:43:39 10° WSW 21:56:17 16° SW 22:02:55 10° S
Ariane H10+ 3.2 21:48:56 10° WSW 21:57:44 33° SSW 22:01:18 10° SE
ARIANE 44P R/B 4.3 21:44:09 10° WSW 22:01:21 46° S 22:05:05 10° ESE
